Wind_Speed
28 28 28 28 28 29 29 29 29 28 28 29 29 29 29 29 29 29 29 28 28 27 27 27 27 27 27 27 28 29 29 29 30 30 29 29 30 29 29 31 32 32 32
28 29 29 29 29 29 29 30 30 30 30 30 30 30 29 29 29 29 28 28 27 27 27 26 26 26 26 27 28 28 28 28 28 29 29 29 29 28 29 30 31 31 31
28 29 29 30 30 30 30 30 30 29 29 29 29 29 28 28 28 28 27 26 25 25 25 25 25 25 24 25 25 25 25 25 26 27 28 28 28 28 27 27 28 29 28
28 28 28 28 28 28 28 28 27 27 27 27 27 26 26 25 25 25 25 24 24 23 23 23 22 22 22 22 22 22 22 23 24 25 25 25 25 25 25 26 26 26 25
26 26 26 26 26 25 25 25 25 24 24 24 24 24 23 23 23 23 22 22 22 22 21 21 21 20 20 20 19 19 19 20 20 21 21 20 20 21 22 23 22 22 24
25 25 24 24 24 23 23 23 23 22 22 22 21 21 21 20 20 20 19 19 19 19 19 19 18 18 17 17 17 17 17 18 17 17 18 18 18 18 19 19 20 21 22
24 24 23 23 23 22 21 21 20 20 19 19 18 18 17 17 16 16 16 16 16 15 15 16 15 15 15 15 15 15 15 14 14 14 14 14 14 15 16 17 18 19 19
23 22 22 22 20 19 19 18 17 17 17 17 16 15 15 15 15 14 13 13 13 13 13 12 12 12 12 12 12 11 11 11 12 12 12 13 13 13 14 14 14 15 15
21 20 19 18 17 16 15 14 14 14 14 14 14 13 13 13 13 14 12 12 12 11 10 10 10 10 10 10 10 9 9 9 10 10 10 10 10 11 11 11 11 11 10
18 17 16 15 14 12 11 10 10 10 10 10 10 11 10 11 11 11 10 10 10 9 9 8 7 7 8 9 8 7 7 7 8 8 8 7 8 7 7 6 7 7 8
14 13 12 10 9 8 7 7 6 6 7 8 8 9 9 9 9 9 9 7 7 8 7 6 5 5 6 6 6 6 6 6 5 5 5 4 3 3 3 4 5 5 6
10 9 8 6 5 5 5 4 4 5 5 6 7 7 7 7 7 7 7 7 6 6 6 6 5 4 4 4 4 4 3 3 2 1 1 1 1 2 2 3 3 4 5
7 5 4 3 3 3 3 4 4 4 4 5 5 6 6 6 6 7 6 6 6 5 5 5 4 4 4 3 3 2 2 1 2 2 2 1 1 2 2 3 4 5 6
3 2 2 2 3 3 3 3 3 4 5 5 5 6 6 7 7 7 7 7 7 7 6 6 5 5 5 5 4 3 3 4 4 4 4 4 4 4 4 4 4 5 6
1 2 2 3 4 4 5 5 5 5 5 6 6 7 6 7 8 8 8 8 8 7 7 6 6 6 6 5 5 6 6 6 6 6 6 6 5 5 5 5 6 6 7
3 4 5 5 6 6 6 6 6 7 7 8 8 8 8 9 10 10 10 9 9 8 8 8 8 8 7 8 8 8 8 8 7 7 7 6 6 6 6 6 6 7 8
5 5 5 6 7 8 8 8 8 8 9 9 10 10 11 11 11 11 11 10 10 10 10 10 10 10 10 10 10 9 9 9 8 8 7 6 6 6 6 7 7 8 9
7 7 7 9 10 10 9 9 9 10 10 11 12 12 12 12 12 12 12 12 12 12 12 12 12 12 12 11 11 11 10 9 8 8 7 7 7 7 8 8 9 9 10
8 9 9 10 11 11 11 11 11 11 11 12 13 13 13 13 13 13 13 14 14 14 14 13 13 13 13 12 12 11 10 10 9 9 8 8 8 8 9 9 9 10 11
10 10 11 11 12 12 12 12 12 13 13 14 14 14 13 13 13 14 15 15 15 14 14 13 13 13 13 12 12 11 10 10 9 9 9 9 9 9 10 10 11 12 13
12 13 14 14 13 13 13 14 15 15 15 15 15 14 15 15 15 16 16 15 14 14 13 13 13 13 13 12 11 10 10 9 9 9 9 9 9 10 10 11 12 13 14
13 14 14 14 14 14 14 15 16 16 16 15 15 15 15 16 16 15 15 15 14 14 13 13 13 12 12 11 10 9 9 9 9 8 9 9 10 10 11 12 13 15 16
13 13 13 13 13 14 14 14 15 15 15 15 14 15 15 15 15 14 14 14 14 13 12 12 11 11 10 10 9 9 8 8 8 8 9 9 10 11 12 14 15 17 18
12 12 12 13 13 13 14 14 14 14 14 14 14 14 14 13 13 13 13 12 12 11 11 10 10 9 8 8 8 7 7 7 8 8 9 10 11 13 14 16 18 19 21
12 12 12 12 13 13 13 13 13 13 13 13 13 13 13 12 12 11 11 11 11 10 10 9 8 7 7 7 6 6 6 6 7 8 10 11 13 14 16 18 20 22 24
11 11 11 11 11 12 12 12 12 12 11 11 11 11 11 10 10 10 9 9 9 8 7 7 6 5 5 4 4 5 5 7 8 9 11 13 15 17 19 21 23 24 26
Wind_Direction
278 278 278 277 276 275 273 272 271 272 271 270 269 270 269 268 268 268 268 269 270 269 268 267 267 267 265 264 263 262 260 260 258 258 256 256 257 257 257 258 260 262 264
280 279 279 278 277 276 274 272 271 271 271 270 269 268 268 267 268 266 266 269 269 267 266 266 266 266 265 264 263 262 260 259 258 256 255 255 255 257 258 260 261 264 265
282 281 280 280 279 278 276 273 271 271 271 270 270 269 267 266 265 264 265 267 267 266 264 265 266 265 264 263 263 262 260 258 256 257 256 256 255 255 257 261 263 265 266
282 281 281 281 281 280 277 274 272 271 271 270 270 269 267 265 265 264 265 266 266 264 264 264 264 263 262 262 261 261 259 257 256 255 256 255 254 256 258 261 263 266 269
282 282 282 283 283 280 276 274 272 271 270 268 268 267 266 265 264 264 265 265 265 264 262 261 262 261 260 260 261 259 257 255 253 253 252 253 254 258 259 263 264 267 272
284 284 284 283 282 279 277 275 272 269 266 265 265 264 265 264 261 261 261 262 264 261 258 259 259 258 254 253 254 256 255 254 252 251 253 254 257 258 261 265 269 273 277
285 285 284 283 282 280 277 275 270 268 265 264 263 261 260 261 258 256 257 259 261 259 259 261 259 257 256 254 254 255 254 251 252 256 256 257 259 263 267 271 275 278 282
285 285 285 284 282 278 275 272 266 264 263 261 260 257 255 253 250 249 251 256 256 258 260 263 260 256 249 248 247 248 249 250 253 254 255 261 265 269 272 275 280 285 287
286 285 284 282 279 278 275 269 263 261 259 257 255 252 247 243 239 241 248 249 247 252 258 256 253 250 244 244 247 252 249 245 248 253 258 266 271 272 278 284 288 289 294
287 286 283 280 277 274 271 267 261 254 250 247 248 242 239 241 239 236 237 242 242 245 248 248 245 245 244 242 245 249 249 253 256 258 259 269 274 276 282 290 300 306 308
286 285 284 281 274 266 262 261 252 244 239 235 231 229 233 236 230 227 232 235 235 237 236 229 224 230 232 233 241 247 248 251 254 255 257 263 271 287 306 313 314 315 320
285 284 278 273 267 250 241 233 227 222 214 204 206 213 215 216 214 213 216 220 222 217 213 214 211 212 214 216 225 230 227 228 230 211 223 240 330 346 340 337 338 339 340
283 277 265 248 230 212 208 208 204 190 178 180 188 193 197 197 193 192 197 200 193 193 194 191 186 179 173 168 165 166 159 147 135 121 104 81 52 20 6 1 357 354 353
278 254 226 194 184 176 172 167 164 163 163 169 170 176 178 174 171 170 174 174 173 170 168 168 162 152 146 139 136 130 120 112 103 97 87 78 67 52 39 32 24 17 10
114 116 126 142 154 152 153 150 150 157 161 154 150 151 149 151 151 156 155 153 151 148 143 140 143 138 134 131 124 116 110 105 100 92 85 77 68 61 54 46 33 21 12
118 108 109 120 134 135 136 141 140 140 142 140 136 137 134 135 134 134 132 131 131 131 129 127 124 123 120 119 114 109 105 102 97 91 86 78 69 60 50 39 29 20 13
107 102 101 112 122 126 129 132 131 131 132 130 127 125 126 128 127 127 127 127 127 127 124 121 119 118 115 113 111 108 106 102 98 92 85 77 69 59 48 37 27 19 11
102 99 99 107 113 118 125 128 127 126 127 127 126 123 123 125 124 123 124 123 122 122 120 118 116 114 112 110 109 105 101 96 91 85 80 73 64 53 43 33 24 17 10
98 100 103 107 110 114 116 117 119 122 124 125 124 125 125 124 123 122 122 121 121 119 118 116 113 111 110 108 104 99 94 90 84 79 74 67 58 47 35 26 19 12 6
99 101 105 110 112 113 114 113 116 118 120 121 121 121 120 121 123 123 123 122 120 119 117 114 113 111 108 104 100 96 92 87 80 74 67 58 48 38 30 23 17 11 5
101 103 106 109 110 110 111 112 114 115 116 117 117 117 118 119 120 120 121 121 120 119 116 113 109 107 104 101 98 94 89 82 75 68 59 49 41 34 28 21 15 8 2
104 105 105 107 107 109 111 113 114 116 116 116 115 115 116 117 118 119 120 120 119 116 113 110 108 107 104 100 96 89 83 77 70 60 49 40 33 26 19 13 7 1 356
107 107 107 108 108 109 110 113 115 116 117 117 117 118 118 119 120 119 119 118 117 115 113 111 109 105 101 96 90 83 76 69 60 51 41 30 22 14 8 3 358 354 351
108 109 110 111 112 113 114 115 117 118 119 119 120 121 122 121 120 119 119 118 117 115 113 111 107 102 98 91 83 75 67 57 45 34 24 15 9 4 360 355 351 348 346
110 110 112 113 115 117 118 120 121 122 122 122 122 122 122 122 120 119 118 118 117 116 114 111 107 103 96 86 77 67 54 40 27 18 11 5 359 355 351 348 346 344 342
115 117 117 118 119 120 121 123 124 124 123 124 125 125 124 123 122 121 121 122 122 121 119 115 110 101 89 75 59 42 25 12 3 358 354 350 347 345 344 343 341 340 338
Height
5780 5779 5778 5777 5776 5775 5774 5773 5772 5772 5771 5771 5771 5771 5771 5771 5771 5772 5772 5772 5773 5773 5774 5774 5775 5775 5776 5777 5778 5779 5780 5781 5781 5782 5782 5783 5784 5784 5785 5786 5787 5787 5787
5772 5771 5770 5768 5767 5766 5765 5764 5763 5763 5762 5762 5762 5763 5763 5763 5763 5764 5764 5765 5765 5766 5766 5767 5768 5768 5769 5770 5771 5772 5773 5773 5774 5775 5775 5776 5776 5778 5778 5779 5779 5780 5779
5764 5762 5761 5760 5758 5757 5756 5755 5754 5754 5753 5753 5753 5754 5754 5755 5755 5756 5757 5758 5758 5759 5759 5760 5760 5761 5762 5763 5764 5765 5766 5766 5767 5768 5769 5769 5770 5771 5772 5773 5773 5773 5772
5756 5754 5753 5751 5749 5748 5747 5746 5745 5745 5745 5745 5745 5746 5746 5747 5748 5749 5750 5751 5751 5752 5752 5753 5754 5755 5755 5756 5757 5758 5759 5760 5761 5762 5763 5764 5764 5765 5766 5767 5767 5767 5766
5748 5746 5745 5743 5741 5740 5739 5738 5738 5738 5738 5738 5738 5739 5740 5741 5742 5743 5744 5744 5745 5746 5746 5747 5748 5749 5750 5751 5752 5753 5754 5755 5756 5757 5758 5759 5759 5760 5761 5761 5761 5761 5761
5740 5739 5737 5736 5734 5733 5732 5731 5731 5731 5731 5731 5732 5733 5734 5735 5736 5737 5738 5739 5740 5740 5741 5742 5743 5744 5745 5746 5747 5748 5750 5751 5751 5752 5754 5754 5755 5756 5756 5757 5757 5756 5756
5733 5731 5730 5729 5727 5726 5725 5724 5724 5724 5725 5725 5726 5727 5728 5730 5731 5733 5734 5735 5736 5736 5737 5738 5739 5740 5741 5742 5743 5744 5745 5746 5748 5749 5750 5750 5751 5752 5752 5752 5752 5752 5751
5726 5724 5723 5722 5721 5720 5719 5718 5718 5719 5719 5720 5722 5723 5724 5725 5727 5729 5730 5731 5732 5733 5734 5735 5736 5737 5738 5739 5740 5741 5742 5743 5744 5745 5746 5747 5747 5748 5748 5748 5748 5747 5747
5719 5718 5717 5715 5715 5714 5713 5713 5713 5714 5715 5716 5717 5719 5720 5722 5724 5725 5727 5728 5729 5731 5732 5732 5733 5734 5735 5737 5738 5739 5740 5741 5742 5742 5743 5744 5744 5744 5745 5745 5745 5744 5744
5713 5712 5711 5711 5710 5710 5709 5709 5710 5711 5712 5713 5715 5716 5718 5719 5721 5723 5724 5726 5727 5728 5730 5731 5731 5732 5734 5735 5736 5737 5738 5739 5740 5740 5741 5741 5742 5742 5742 5742 5742 5742 5742
5709 5708 5707 5707 5707 5706 5707 5707 5708 5709 5710 5711 5712 5714 5716 5718 5719 5721 5723 5724 5726 5727 5728 5729 5730 5731 5732 5734 5735 5736 5737 5738 5738 5739 5740 5740 5740 5741 5741 5741 5741 5741 5740
5705 5704 5704 5704 5704 5705 5705 5706 5707 5707 5708 5710 5711 5713 5715 5716 5718 5720 5722 5723 5725 5726 5727 5729 5730 5731 5732 5733 5734 5735 5736 5737 5737 5738 5739 5739 5740 5740 5740 5740 5740 5739 5739
5702 5702 5702 5702 5703 5704 5704 5705 5706 5707 5708 5709 5711 5712 5714 5716 5718 5719 5721 5723 5725 5726 5727 5728 5730 5731 5732 5733 5734 5735 5736 5737 5737 5738 5739 5739 5739 5740 5739 5739 5739 5738 5738
5700 5701 5701 5702 5702 5703 5704 5705 5706 5707 5709 5710 5711 5713 5714 5716 5718 5720 5722 5723 5725 5726 5728 5729 5730 5731 5733 5734 5735 5735 5736 5737 5738 5738 5739 5739 5739 5740 5739 5739 5739 5738 5738
5700 5701 5701 5701 5703 5704 5705 5706 5707 5708 5710 5711 5712 5714 5715 5717 5718 5720 5722 5724 5726 5727 5729 5730 5731 5733 5734 5735 5735 5736 5737 5738 5739 5739 5740 5740 5740 5740 5740 5740 5739 5738 5738
5702 5702 5702 5703 5704 5705 5706 5708 5709 5710 5711 5712 5714 5715 5717 5719 5720 5722 5724 5726 5727 5729 5730 5731 5733 5734 5735 5736 5737 5738 5738 5739 5740 5740 5741 5741 5741 5741 5741 5740 5739 5739 5738
5704 5704 5704 5705 5705 5707 5708 5710 5711 5712 5713 5715 5716 5718 5719 5721 5722 5724 5726 5728 5729 5731 5732 5733 5735 5736 5737 5738 5738 5739 5740 5741 5741 5742 5742 5742 5742 5742 5741 5741 5740 5739 5737
5706 5707 5707 5707 5708 5709 5710 5712 5713 5715 5716 5718 5719 5721 5722 5724 5725 5727 5728 5730 5732 5733 5735 5736 5737 5738 5739 5740 5741 5742 5742 5743 5743 5743 5743 5743 5743 5743 5742 5741 5740 5739 5737
5709 5710 5710 5711 5711 5712 5714 5715 5716 5718 5719 5720 5722 5724 5725 5727 5728 5730 5731 5733 5735 5736 5738 5739 5740 5741 5742 5743 5744 5744 5745 5745 5745 5745 5745 5744 5744 5743 5742 5741 5740 5738 5737
5713 5713 5714 5714 5715 5716 5717 5718 5720 5721 5722 5724 5725 5727 5728 5730 5731 5733 5735 5736 5738 5739 5741 5742 5743 5744 5745 5745 5746 5746 5747 5747 5747 5747 5746 5746 5745 5744 5743 5742 5740 5738 5736
5717 5717 5718 5719 5720 5721 5722 5723 5724 5725 5727 5728 5730 5731 5732 5734 5735 5736 5738 5740 5741 5743 5744 5745 5746 5747 5747 5748 5748 5749 5749 5749 5749 5748 5748 5747 5746 5745 5743 5742 5740 5738 5735
5721 5722 5723 5723 5724 5725 5726 5728 5729 5730 5731 5733 5734 5735 5737 5738 5739 5741 5742 5743 5745 5746 5747 5748 5749 5749 5750 5750 5751 5751 5751 5751 5750 5750 5749 5748 5747 5746 5744 5742 5740 5737 5734
5726 5727 5728 5728 5729 5730 5731 5732 5733 5735 5736 5737 5739 5740 5741 5742 5743 5744 5746 5747 5748 5749 5750 5751 5751 5752 5752 5753 5753 5753 5753 5753 5752 5751 5750 5749 5748 5746 5744 5741 5739 5736 5733
5731 5732 5732 5733 5734 5735 5736 5737 5738 5739 5740 5742 5743 5744 5745 5746 5747 5748 5749 5750 5751 5752 5753 5753 5754 5755 5755 5755 5755 5755 5754 5754 5753 5752 5751 5749 5747 5745 5743 5740 5737 5734 5730
5735 5736 5737 5737 5738 5739 5740 5741 5742 5744 5745 5746 5747 5748 5749 5750 5751 5752 5753 5753 5754 5755 5755 5756 5756 5757 5757 5757 5756 5756 5756 5755 5753 5752 5750 5749 5747 5744 5742 5739 5735 5732 5727
5740 5740 5741 5742 5743 5744 5745 5746 5747 5747 5748 5749 5750 5751 5752 5753 5754 5755 5756 5756 5757 5757 5758 5758 5758 5758 5758 5758 5757 5757 5756 5755 5753 5752 5750 5748 5745 5743 5739 5736 5732 5728 5724